,,Stat1,,Stat2,,Stat3,,Stat4,,Wind1,,Wind1,
time,status,PR1M_SUM,status,RH1M_AVG,status,SR1M_AVG,status,TA1M_AVG,status,W1dAve1m,status,W1sAve1m,
1999-09-13, 00:01:00,VALID,0,VALID,98.1017,VALID,0,VALID,21.0565,VALID,169,VALID,0.264391,
1999-09-13, 00:02:00,VALID,0,VALID,98.1984,VALID,0,VALID,21.0694,VALID,131,VALID,0.294922,
1999-09-13, 00:03:00,VALID,0,VALID,98.2467,VALID,0,VALID,21.0791,VALID,96,VALID,0.335737,
1999-09-13, 00:04:00,VALID,0,VALID,98.1844,VALID,0,VALID,21.0789,VALID,59,VALID,0.358758,
1999-09-13, 00:05:00,VALID,0,VALID,98.075,VALID,0,VALID,21.0791,VALID,17,VALID,0.311523,
1999-09-13, 00:06:00,VALID,0,VALID,98.0814,VALID,0,VALID,21.0689,VALID,337,VALID,0.181377,
1999-09-13, 00:07:00,VALID,0,VALID,98.1666,VALID,0,VALID,21.0915,VALID,310,VALID,0.184966,
1999-09-13, 00:08:00,VALID,0,VALID,98.1742,VALID,0,VALID,21.0985,VALID,289,VALID,0.273638,
1999-09-13, 00:09:00,VALID,0,VALID,98.2734,VALID,0,VALID,21.1147,VALID,277,VALID,0.0328526,
1999-09-13, 00:10:00,VALID,0,VALID,98.2505,VALID,0,VALID,21.1344,VALID,226,VALID,0.157728,
1999-09-13, 00:11:00,VALID,0,VALID,98.2798,VALID,-0.0169808,VALID,21.1279,VALID,218,VALID,0.264391,
1999-09-13, 00:12:01,VALID,0,VALID,98.2989,VALID,0,VALID,21.1443,VALID,217,VALID,0.361225,
1999-09-13, 00:13:00,VALID,0,VALID,98.1132,VALID,-0.0169808,VALID,21.105,VALID,214,VALID,0.353766,
1999-09-13, 00:14:00,VALID,0,VALID,98.2315,VALID,-0.0169808,VALID,21.1185,VALID,224,VALID,0.210737,
1999-09-13, 00:15:00,VALID,0,VALID,98.2009,VALID,0,VALID,21.0956,VALID,257,VALID,0.36616,
1999-09-13, 00:16:00,VALID,0,VALID,98.1132,VALID,0,VALID,21.0767,VALID,254,VALID,0.633765,
1999-09-13, 00:17:00,VALID,0,VALID,98.0979,VALID,0,VALID,21.0503,VALID,248,VALID,0.706292,
1999-09-13, 00:18:00,VALID,0,VALID,98.1208,VALID,0,VALID,21.0311,VALID,247,VALID,0.470052,
1999-09-13, 00:19:00,VALID,0,VALID,98.1793,VALID,0,VALID,21.0212,VALID,246,VALID,0.308494,
1999-09-13, 00:20:00,VALID,0,VALID,98.295,VALID,-0.0169808,VALID,21.0279,VALID,245,VALID,0.0575658,
1999-09-13, 00:21:00,VALID,0,VALID,98.3001,VALID,-0.0339617,VALID,21.0212,VALID,245,VALID,0,
1999-09-13, 00:22:00,VALID,0,VALID,98.4591,VALID,-0.0169808,VALID,21.0575,VALID,249,VALID,0.164485,
1999-09-13, 00:23:01,VALID,0,VALID,98.4781,VALID,-0.0339617,VALID,21.05,VALID,279,VALID,0.242188,
1999-09-13, 00:24:00,VALID,0,VALID,98.4336,VALID,-0.0169808,VALID,21.0505,VALID,304,VALID,0.23902,
1999-09-13, 00:25:00,VALID,0,VALID,98.4591,VALID,-0.0339617,VALID,21.0468,VALID,315,VALID,0.337416,
1999-09-13, 00:26:00,VALID,0,VALID,98.5048,VALID,0,VALID,21.0573,VALID,311,VALID,0.364515,
1999-09-13, 00:27:00,VALID,0,VALID,98.501,VALID,-0.0169808,VALID,21.0476,VALID,292,VALID,0.032278,
1999-09-13, 00:28:00,VALID,0,VALID,98.5773,VALID,-0.0169808,VALID,21.0667,VALID,288,VALID,0.2375,
1999-09-13, 00:29:00,VALID,0,VALID,98.3484,VALID,-0.0339617,VALID,21.0311,VALID,325,VALID,0.555147,
1999-09-13, 00:30:00,VALID,0,VALID,98.4082,VALID,0,VALID,21.0311,VALID,282,VALID,0.475946,
1999-09-13, 00:31:00,VALID,0,VALID,98.4298,VALID,-0.0169808,VALID,21.0309,VALID,269,VALID,0.549632,
1999-09-13, 00:32:00,VALID,0,VALID,98.3001,VALID,-0.0509425,VALID,21.005,VALID,267,VALID,0.928209,
1999-09-13, 00:33:00,VALID,0,VALID,98.2175,VALID,-0.0339617,VALID,21.0055,VALID,273,VALID,0.653083,
1999-09-13, 00:34:01,VALID,0,VALID,98.276,VALID,-0.0339617,VALID,21.0085,VALID,295,VALID,0.294408,
1999-09-13, 00:35:00,VALID,0,VALID,98.4082,VALID,-0.0509425,VALID,21.0376,VALID,299,VALID,0.377477,
1999-09-13, 00:36:00,VALID,0,VALID,98.4069,VALID,0,VALID,21.0411,VALID,301,VALID,0.340583,
1999-09-13, 00:37:00,VALID,0,VALID,98.4553,VALID,-0.0339617,VALID,21.0376,VALID,306,VALID,0.368877,
1999-09-13, 00:38:00,VALID,0,VALID,98.2225,VALID,-0.0509425,VALID,20.9826,VALID,306,VALID,0.609169,
1999-09-13, 00:39:00,VALID,0,VALID,98.3116,VALID,-0.0339617,VALID,20.9791,VALID,294,VALID,0.405664,
1999-09-13, 00:40:00,VALID,0,VALID,98.3942,VALID,0,VALID,20.9719,VALID,297,VALID,0.312922,
1999-09-13, 00:41:00,VALID,0,VALID,98.3688,VALID,0.0339617,VALID,20.9727,VALID,304,VALID,0.575391,
1999-09-13, 00:42:00,VALID,0,VALID,98.3421,VALID,0,VALID,20.9503,VALID,308,VALID,0.447635,
1999-09-13, 00:43:00,VALID,0,VALID,98.3624,VALID,0.0169808,VALID,20.9242,VALID,342,VALID,0.276394,
1999-09-13, 00:44:01,VALID,0,VALID,98.6244,VALID,0,VALID,20.9662,VALID,43,VALID,0.335737,
1999-09-13, 00:45:01,VALID,0,VALID,98.6524,VALID,0,VALID,20.9797,VALID,50,VALID,0.353766,
1999-09-13, 00:46:00,VALID,0,VALID,98.4591,VALID,-0.0169808,VALID,20.9406,VALID,302,VALID,0.592272,
1999-09-13, 00:47:00,VALID,0,VALID,98.3942,VALID,0,VALID,20.905,VALID,297,VALID,0.0960115,
1999-09-13, 00:48:00,VALID,0,VALID,98.4578,VALID,-0.0169808,VALID,20.9082,VALID,283,VALID,0.138158,
1999-09-13, 00:49:00,VALID,0,VALID,98.5227,VALID,-0.0169808,VALID,20.9244,VALID,87,VALID,0.678285,
1999-09-13, 00:50:00,VALID,0,VALID,98.6689,VALID,-0.0169808,VALID,20.9565,VALID,96,VALID,0.422075,
1999-09-13, 00:51:00,VALID,0,VALID,98.5633,VALID,0.0169808,VALID,20.9274,VALID,80,VALID,0.126028,
1999-09-13, 00:52:00,VALID,0,VALID,98.515,VALID,0.0169808,VALID,20.9112,VALID,101,VALID,0,
1999-09-13, 00:53:00,VALID,0,VALID,98.4807,VALID,-0.0169808,VALID,20.9048,VALID,101,VALID,0.000211149,
1999-09-13, 00:54:00,VALID,0,VALID,98.4934,VALID,0,VALID,20.8985,VALID,110,VALID,0.0672743,
1999-09-13, 00:55:00,VALID,0,VALID,98.6765,VALID,0,VALID,20.95,VALID,116,VALID,0.231571,
1999-09-13, 00:56:01,VALID,0,VALID,98.5532,VALID,-0.0169808,VALID,20.9503,VALID,192,VALID,0.250206,
1999-09-13, 00:57:00,VALID,0,VALID,98.4324,VALID,0,VALID,20.9239,VALID,90,VALID,0.6875,
1999-09-13, 00:58:00,VALID,0,VALID,98.3662,VALID,0.0169808,VALID,20.9145,VALID,87,VALID,0.392948,
1999-09-13, 00:59:00,VALID,0,VALID,98.3268,VALID,0,VALID,20.9112,VALID,36,VALID,0,
1999-09-13, 01:00:00,VALID,0,VALID,98.2416,VALID,0,VALID,20.8978,VALID,282,VALID,0,
1999-09-13, 01:01:00,VALID,0,VALID,98.2823,VALID,-0.0339617,VALID,20.9244,VALID,250,VALID,0.212416,
1999-09-13, 01:02:00,VALID,0,VALID,98.351,VALID,-0.0169808,VALID,20.95,VALID,315,VALID,0.213199,
1999-09-13, 01:03:00,VALID,0,VALID,98.2658,VALID,-0.0339617,VALID,20.9406,VALID,307,VALID,0,
1999-09-13, 01:04:00,VALID,0,VALID,98.2276,VALID,0,VALID,20.9403,VALID,285,VALID,0,
1999-09-13, 01:05:00,VALID,0,VALID,98.2454,VALID,0,VALID,20.9662,VALID,164,VALID,0.449219,
1999-09-13, 01:06:01,VALID,0,VALID,98.3256,VALID,0,VALID,20.9891,VALID,92,VALID,1.03207,
1999-09-13, 01:07:01,VALID,0,VALID,98.2823,VALID,-0.0169808,VALID,20.9891,VALID,85,VALID,0.582721,
1999-09-13, 01:08:00,VALID,0,VALID,98.0522,VALID,-0.0339617,VALID,20.9436,VALID,86,VALID,0.476351,
1999-09-13, 01:09:00,VALID,0,VALID,97.9784,VALID,-0.0849042,VALID,20.9406,VALID,78,VALID,0.689823,
1999-09-13, 01:10:00,VALID,0,VALID,97.6198,VALID,-0.0169808,VALID,20.8694,VALID,58,VALID,0.934211,
1999-09-13, 01:11:00,VALID,0,VALID,97.6516,VALID,0,VALID,20.8468,VALID,83,VALID,1.01029,
1999-09-13, 01:12:00,VALID,0,VALID,97.7953,VALID,-0.0169808,VALID,20.8236,VALID,93,VALID,1.15013,
1999-09-13, 01:13:00,VALID,0,VALID,97.9275,VALID,0,VALID,20.8301,VALID,88,VALID,1.02977,
1999-09-13, 01:14:00,VALID,0,VALID,98.014,VALID,-0.0169808,VALID,20.8366,VALID,84,VALID,0.426192,
1999-09-13, 01:15:00,VALID,0,VALID,98.0026,VALID,-0.0339617,VALID,20.8368,VALID,99,VALID,0.185937,
1999-09-13, 01:16:00,VALID,0,VALID,98.0382,VALID,-0.0169808,VALID,20.8436,VALID,136,VALID,0.00464527,
1999-09-13, 01:17:01,VALID,0,VALID,97.9581,VALID,0,VALID,20.8503,VALID,182,VALID,0,
1999-09-13, 01:18:01,VALID,0,VALID,97.8322,VALID,0,VALID,20.8403,VALID,127,VALID,0.306377,
1999-09-13, 01:19:00,VALID,0,VALID,97.4176,VALID,0,VALID,20.8145,VALID,52,VALID,0.359586,
1999-09-13, 01:20:00,VALID,0,VALID,97.012,VALID,0,VALID,20.7918,VALID,44,VALID,0.0224359,
1999-09-13, 01:21:00,VALID,0,VALID,97.0603,VALID,-0.0169808,VALID,20.7948,VALID,98,VALID,0.44371,
1999-09-13, 01:22:00,VALID,0,VALID,97.2816,VALID,-0.0339617,VALID,20.7943,VALID,107,VALID,0.58826,
1999-09-13, 01:23:00,VALID,0,VALID,97.3337,VALID,-0.0339617,VALID,20.8142,VALID,103,VALID,0.540502,
1999-09-13, 01:24:00,VALID,0,VALID,97.2701,VALID,-0.0169808,VALID,20.7951,VALID,97,VALID,0.688322,
1999-09-13, 01:25:00,VALID,0,VALID,97.2867,VALID,-0.0169808,VALID,20.7854,VALID,93,VALID,0.626002,
1999-09-13, 01:26:00,VALID,0,VALID,97.3731,VALID,-0.0509425,VALID,20.7889,VALID,95,VALID,0.495593,
1999-09-13, 01:27:00,VALID,0,VALID,97.2599,VALID,-0.0339617,VALID,20.7665,VALID,100,VALID,0.427015,
1999-09-13, 01:28:00,VALID,0,VALID,97.2574,VALID,-0.0169808,VALID,20.7438,VALID,90,VALID,0.373094,
1999-09-13, 01:29:00,VALID,0,VALID,97.1849,VALID,-0.0169808,VALID,20.7368,VALID,97,VALID,0.011402,
1999-09-13, 01:30:00,VALID,0,VALID,96.9929,VALID,0,VALID,20.7304,VALID,113,VALID,0.0661892,
1999-09-13, 01:31:00,VALID,0,VALID,96.6407,VALID,0,VALID,20.6978,VALID,175,VALID,0.504407,
1999-09-13, 01:32:00,VALID,0,VALID,96.6369,VALID,0,VALID,20.6754,VALID,186,VALID,0.564556,
1999-09-13, 01:33:00,VALID,0,VALID,96.9242,VALID,-0.0169808,VALID,20.6361,VALID,191,VALID,0.331836,
1999-09-13, 01:34:00,VALID,0,VALID,97.1709,VALID,-0.0169808,VALID,20.6072,VALID,202,VALID,0.707981,
1999-09-13, 01:35:00,VALID,0,VALID,97.3032,VALID,0,VALID,20.5617,VALID,208,VALID,0.543069,
1999-09-13, 01:36:00,VALID,0,VALID,97.3909,VALID,-0.0169808,VALID,20.5528,VALID,206,VALID,0.399493,
1999-09-13, 01:37:00,VALID,0,VALID,97.5359,VALID,0,VALID,20.5102,VALID,217,VALID,0.23902,
1999-09-13, 01:38:00,VALID,0,VALID,97.7241,VALID,0,VALID,20.5137,VALID,223,VALID,0.00925164,
1999-09-13, 01:39:00,VALID,0,VALID,97.7254,VALID,0,VALID,20.5107,VALID,326,VALID,0.363487,
1999-09-13, 01:40:00,VALID,0,VALID,97.7355,VALID,0,VALID,20.5035,VALID,344,VALID,0.551367,
1999-09-13, 01:41:00,VALID,0,VALID,97.7673,VALID,-0.0169808,VALID,20.5142,VALID,330,VALID,0.207491,
1999-09-13, 01:42:00,VALID,0,VALID,97.7838,VALID,-0.0169808,VALID,20.5043,VALID,319,VALID,0.0729852,
1999-09-13, 01:43:00,VALID,0,VALID,97.7902,VALID,-0.0169808,VALID,20.4978,VALID,298,VALID,0.0496324,
1999-09-13, 01:44:00,VALID,0,VALID,97.9453,VALID,-0.0169808,VALID,20.5013,VALID,272,VALID,0,
1999-09-13, 01:45:00,VALID,0,VALID,98.0191,VALID,-0.0339617,VALID,20.511,VALID,288,VALID,0.112331,
1999-09-13, 01:46:00,VALID,0,VALID,98.0051,VALID,0,VALID,20.4913,VALID,296,VALID,0.242393,
1999-09-13, 01:47:00,VALID,0,VALID,98.1399,VALID,-0.0169808,VALID,20.5048,VALID,256,VALID,0,
1999-09-13, 01:48:00,VALID,0,VALID,98.1717,VALID,-0.0169808,VALID,20.4913,VALID,259,VALID,0,
1999-09-13, 01:49:00,VALID,0,VALID,98.1971,VALID,-0.0339617,VALID,20.4919,VALID,255,VALID,0,
1999-09-13, 01:50:00,VALID,0,VALID,98.2683,VALID,-0.0339617,VALID,20.4819,VALID,255,VALID,0,
1999-09-13, 01:51:00,VALID,0,VALID,98.3548,VALID,-0.0509425,VALID,20.4951,VALID,244,VALID,0,
1999-09-13, 01:52:00,VALID,0,VALID,98.4146,VALID,-0.0509425,VALID,20.5145,VALID,232,VALID,0,
1999-09-13, 01:53:00,VALID,0,VALID,98.2569,VALID,-0.0679233,VALID,20.4948,VALID,228,VALID,0,
1999-09-13, 01:54:00,VALID,0,VALID,98.2327,VALID,-0.0679233,VALID,20.4787,VALID,237,VALID,0,
1999-09-13, 01:55:00,VALID,0,VALID,98.2086,VALID,-0.0679233,VALID,20.476,VALID,250,VALID,0,
1999-09-13, 01:56:00,VALID,0,VALID,98.1615,VALID,-0.0509425,VALID,20.4498,VALID,252,VALID,0,
1999-09-13, 01:57:00,VALID,0,VALID,98.1043,VALID,0,VALID,20.4302,VALID,261,VALID,0.173277,
1999-09-13, 01:58:00,VALID,0,VALID,98.1106,VALID,-0.0169808,VALID,20.4344,VALID,255,VALID,0.232264,
1999-09-13, 01:59:00,VALID,0,VALID,98.089,VALID,-0.0509425,VALID,20.4113,VALID,254,VALID,0.446135,
1999-09-13, 02:00:00,VALID,0,VALID,98.0585,VALID,-0.0679233,VALID,20.3951,VALID,252,VALID,0.511513,
1999-09-13, 02:01:01,VALID,0,VALID,98.056,VALID,-0.0339617,VALID,20.3889,VALID,267,VALID,0.500801,
1999-09-13, 02:02:00,VALID,0,VALID,98.0661,VALID,-0.0509425,VALID,20.3857,VALID,274,VALID,0.304287,
1999-09-13, 02:03:00,VALID,0,VALID,98.0649,VALID,-0.0339617,VALID,20.3685,VALID,294,VALID,0.467311,
1999-09-13, 02:04:00,VALID,0,VALID,98.0839,VALID,-0.0339617,VALID,20.372,VALID,305,VALID,0.686928,
1999-09-13, 02:05:00,VALID,0,VALID,98.0344,VALID,0,VALID,20.3655,VALID,313,VALID,0.875,
1999-09-13, 02:06:00,VALID,0,VALID,98.0102,VALID,0,VALID,20.3663,VALID,311,VALID,0.85178,
1999-09-13, 02:07:00,VALID,0,VALID,98.0776,VALID,-0.0679233,VALID,20.3628,VALID,300,VALID,0.672877,
1999-09-13, 02:08:00,VALID,0,VALID,98.1259,VALID,0,VALID,20.3558,VALID,324,VALID,0.686472,
1999-09-13, 02:09:00,VALID,0,VALID,98.1882,VALID,-0.0509425,VALID,20.3692,VALID,299,VALID,0.550586,
1999-09-13, 02:10:00,VALID,0,VALID,98.2899,VALID,-0.0509425,VALID,20.3496,VALID,321,VALID,0.528083,
1999-09-13, 02:11:00,VALID,0,VALID,98.3154,VALID,0,VALID,20.3471,VALID,315,VALID,0.608574,
1999-09-13, 02:12:00,VALID,0,VALID,98.3535,VALID,-0.0169808,VALID,20.3309,VALID,292,VALID,0.488598,
1999-09-13, 02:13:00,VALID,0,VALID,98.4349,VALID,-0.0339617,VALID,20.3374,VALID,291,VALID,0.214316,
1999-09-13, 02:14:00,VALID,0,VALID,98.5048,VALID,0,VALID,20.3267,VALID,299,VALID,0.0544819,
1999-09-13, 02:15:00,VALID,0,VALID,98.5048,VALID,-0.0849042,VALID,20.3404,VALID,321,VALID,0.346012,
1999-09-13, 02:16:00,VALID,0,VALID,98.501,VALID,-0.0509425,VALID,20.3237,VALID,323,VALID,0.318359,
1999-09-13, 02:17:00,VALID,0,VALID,98.5455,VALID,-0.0339617,VALID,20.3108,VALID,313,VALID,0.115579,
1999-09-13, 02:18:00,VALID,0,VALID,98.515,VALID,0,VALID,20.3108,VALID,312,VALID,0.530839,
1999-09-13, 02:19:00,VALID,0,VALID,98.3929,VALID,0,VALID,20.2916,VALID,321,VALID,0.873162,
1999-09-13, 02:20:00,VALID,0,VALID,98.2289,VALID,-0.0509425,VALID,20.2598,VALID,324,VALID,0.677787,
1999-09-13, 02:21:00,VALID,0,VALID,98.1259,VALID,-0.0849042,VALID,20.2531,VALID,312,VALID,0.443834,
1999-09-13, 02:22:01,VALID,0,VALID,98.0878,VALID,-0.0169808,VALID,20.2558,VALID,280,VALID,0.0692845,
1999-09-13, 02:23:00,VALID,0,VALID,98.0649,VALID,-0.0339617,VALID,20.2695,VALID,257,VALID,0,
1999-09-13, 02:24:00,VALID,0,VALID,97.8958,VALID,-0.0169808,VALID,20.2593,VALID,247,VALID,0,
1999-09-13, 02:25:00,VALID,0,VALID,97.7559,VALID,-0.0339617,VALID,20.2687,VALID,227,VALID,0,
1999-09-13, 02:26:00,VALID,0,VALID,97.677,VALID,-0.0339617,VALID,20.2852,VALID,228,VALID,0,
1999-09-13, 02:27:00,VALID,0,VALID,97.6185,VALID,-0.0679233,VALID,20.3121,VALID,228,VALID,0,
1999-09-13, 02:28:00,VALID,0,VALID,97.4431,VALID,-0.0679233,VALID,20.2981,VALID,204,VALID,0,
1999-09-13, 02:29:00,VALID,0,VALID,97.3426,VALID,0,VALID,20.3078,VALID,69,VALID,0,
1999-09-13, 02:30:00,VALID,0,VALID,97.2205,VALID,-0.0849042,VALID,20.2921,VALID,62,VALID,0,
1999-09-13, 02:31:00,VALID,0,VALID,97.1964,VALID,-0.0339617,VALID,20.2892,VALID,69,VALID,0,
1999-09-13, 02:32:00,VALID,0,VALID,97.2116,VALID,-0.0679233,VALID,20.3018,VALID,88,VALID,0,
1999-09-13, 02:33:00,VALID,0,VALID,97.3083,VALID,-0.0849042,VALID,20.315,VALID,90,VALID,0,
1999-09-13, 02:34:00,VALID,0,VALID,97.4634,VALID,-0.0679233,VALID,20.3247,VALID,82,VALID,0,
1999-09-13, 02:35:00,VALID,0,VALID,97.3744,VALID,-0.0679233,VALID,20.3245,VALID,81,VALID,0,
1999-09-13, 02:36:00,VALID,0,VALID,97.0056,VALID,-0.0849042,VALID,20.3048,VALID,40,VALID,0,
1999-09-13, 02:37:00,VALID,0,VALID,97.0133,VALID,-0.0849042,VALID,20.3083,VALID,301,VALID,0,
1999-09-13, 02:38:00,VALID,0,VALID,97.2053,VALID,-0.0509425,VALID,20.2859,VALID,313,VALID,0.361579,
1999-09-13, 02:39:00,VALID,0,VALID,97.471,VALID,-0.0849042,VALID,20.2563,VALID,282,VALID,0.344984,
1999-09-13, 02:40:00,VALID,0,VALID,97.6338,VALID,-0.0509425,VALID,20.2471,VALID,255,VALID,0.235709,
1999-09-13, 02:41:00,VALID,0,VALID,97.7114,VALID,-0.0679233,VALID,20.2304,VALID,284,VALID,0.319679,
1999-09-13, 02:42:00,VALID,0,VALID,97.6516,VALID,-0.101885,VALID,20.2143,VALID,290,VALID,0.590929,
1999-09-13, 02:43:00,VALID,0,VALID,97.541,VALID,-0.101885,VALID,20.2116,VALID,273,VALID,0.43109,
1999-09-13, 02:44:00,VALID,0,VALID,97.4227,VALID,-0.101885,VALID,20.1986,VALID,253,VALID,0.674959,
1999-09-13, 02:45:00,VALID,0,VALID,97.4291,VALID,-0.0849042,VALID,20.1986,VALID,247,VALID,0.514453,
1999-09-13, 02:46:00,VALID,0,VALID,97.4914,VALID,-0.101885,VALID,20.1757,VALID,247,VALID,0.336149,
1999-09-13, 02:47:00,VALID,0,VALID,97.6173,VALID,-0.101885,VALID,20.1728,VALID,236,VALID,0.28125,
1999-09-13, 02:48:00,VALID,0,VALID,97.7114,VALID,-0.0849042,VALID,20.1693,VALID,238,VALID,0.29223,
1999-09-13, 02:49:00,VALID,0,VALID,97.8347,VALID,-0.118866,VALID,20.1728,VALID,267,VALID,0.31989,
1999-09-13, 02:50:00,VALID,0,VALID,97.8551,VALID,-0.0849042,VALID,20.1628,VALID,222,VALID,0.138569,
1999-09-13, 02:51:00,VALID,0,VALID,97.8462,VALID,-0.101885,VALID,20.1566,VALID,223,VALID,0.0102796,
1999-09-13, 02:52:00,VALID,0,VALID,97.7788,VALID,-0.101885,VALID,20.1633,VALID,273,VALID,0.164648,
1999-09-13, 02:53:00,VALID,0,VALID,97.7088,VALID,-0.0849042,VALID,20.1568,VALID,311,VALID,0.494945,
1999-09-13, 02:54:00,VALID,0,VALID,97.6808,VALID,-0.0679233,VALID,20.1471,VALID,296,VALID,0.380551,
1999-09-13, 02:55:00,VALID,0,VALID,97.7355,VALID,-0.101885,VALID,20.1305,VALID,312,VALID,0.422335,
1999-09-13, 02:56:01,VALID,0,VALID,97.7864,VALID,-0.0169808,VALID,20.1135,VALID,304,VALID,0.389569,
1999-09-13, 02:57:00,VALID,0,VALID,97.7711,VALID,0,VALID,20.0969,VALID,304,VALID,0.443201,
1999-09-13, 02:58:00,VALID,0,VALID,97.6669,VALID,0,VALID,20.0842,VALID,317,VALID,0.558799,
1999-09-13, 02:59:00,VALID,0,VALID,97.6936,VALID,0.0169808,VALID,20.0912,VALID,297,VALID,0.0783155,
1999-09-13, 03:00:00,VALID,0,VALID,97.616,VALID,0,VALID,20.0713,VALID,276,VALID,0.072424,
1999-09-13, 03:01:00,VALID,0,VALID,97.5779,VALID,0,VALID,20.0608,VALID,287,VALID,0.00253378,
1999-09-13, 03:02:00,VALID,0,VALID,97.5066,VALID,0,VALID,20.0772,VALID,283,VALID,0.00534539,
1999-09-13, 03:03:00,VALID,0,VALID,97.4965,VALID,0,VALID,20.1006,VALID,307,VALID,0.250391,
1999-09-13, 03:04:00,VALID,0,VALID,97.3108,VALID,0,VALID,20.078,VALID,326,VALID,0.446368,
1999-09-13, 03:05:00,VALID,0,VALID,97.3591,VALID,0,VALID,20.0621,VALID,327,VALID,0.263086,
1999-09-13, 03:06:00,VALID,0,VALID,97.555,VALID,0,VALID,20.0551,VALID,328,VALID,0.199324,
1999-09-13, 03:07:01,VALID,0,VALID,97.7203,VALID,0,VALID,20.0486,VALID,329,VALID,0.0257601,
1999-09-13, 03:08:00,VALID,0,VALID,97.9085,VALID,-0.0169808,VALID,20.0548,VALID,94,VALID,0.464343,
1999-09-13, 03:09:00,VALID,0,VALID,97.9975,VALID,0,VALID,20.0752,VALID,102,VALID,0.648237,
1999-09-13, 03:10:00,VALID,0,VALID,98.0623,VALID,-0.0339617,VALID,20.0812,VALID,105,VALID,0.483108,
1999-09-13, 03:11:00,VALID,0,VALID,98.0967,VALID,-0.0169808,VALID,20.1006,VALID,114,VALID,0.337171,
1999-09-13, 03:12:00,VALID,0,VALID,98.0674,VALID,0,VALID,20.1006,VALID,124,VALID,0.212582,
1999-09-13, 03:13:00,VALID,0,VALID,97.9288,VALID,0,VALID,20.0812,VALID,188,VALID,0.122796,
1999-09-13, 03:14:00,VALID,0,VALID,97.9301,VALID,0,VALID,20.0877,VALID,248,VALID,0.497997,
1999-09-13, 03:15:00,VALID,0,VALID,97.822,VALID,0.0169808,VALID,20.0618,VALID,251,VALID,0.661595,
1999-09-13, 03:16:00,VALID,0,VALID,97.8309,VALID,0,VALID,20.029,VALID,246,VALID,0.511242,
1999-09-13, 03:17:00,VALID,0,VALID,97.8627,VALID,0,VALID,20.0165,VALID,265,VALID,0.499789,
1999-09-13, 03:18:01,VALID,0,VALID,97.953,VALID,0,VALID,20.0101,VALID,295,VALID,0.445747,
1999-09-13, 03:19:00,VALID,0,VALID,98.0178,VALID,0,VALID,20.0039,VALID,291,VALID,0.330128,
1999-09-13, 03:20:00,VALID,0,VALID,98.0928,VALID,-0.0169808,VALID,19.9874,VALID,288,VALID,0.306538,
1999-09-13, 03:21:00,VALID,0,VALID,98.1412,VALID,0,VALID,19.9775,VALID,265,VALID,0.479883,
1999-09-13, 03:22:00,VALID,0,VALID,98.2009,VALID,0,VALID,19.971,VALID,245,VALID,0.266892,
1999-09-13, 03:23:00,VALID,0,VALID,98.2899,VALID,0,VALID,19.9837,VALID,217,VALID,0.45633,
1999-09-13, 03:24:00,VALID,0,VALID,98.2798,VALID,0,VALID,19.9874,VALID,201,VALID,0.706926,
1999-09-13, 03:25:00,VALID,0,VALID,98.2187,VALID,-0.0169808,VALID,19.9651,VALID,184,VALID,0.624789,
1999-09-13, 03:26:00,VALID,0,VALID,98.323,VALID,0,VALID,19.9516,VALID,208,VALID,0.108553,
1999-09-13, 03:27:00,VALID,0,VALID,98.3243,VALID,0,VALID,19.9489,VALID,216,VALID,0.164063,
1999-09-13, 03:28:00,VALID,0,VALID,98.3612,VALID,-0.0339617,VALID,19.9454,VALID,251,VALID,0.0460938,
1999-09-13, 03:29:01,VALID,0,VALID,98.3739,VALID,0,VALID,19.9459,VALID,254,VALID,0,
1999-09-13, 03:30:00,VALID,0,VALID,98.4565,VALID,0,VALID,19.9489,VALID,254,VALID,0,
1999-09-13, 03:31:00,VALID,0,VALID,98.501,VALID,0,VALID,19.9688,VALID,252,VALID,0,
1999-09-13, 03:32:00,VALID,0,VALID,98.4514,VALID,-0.0169808,VALID,19.9586,VALID,247,VALID,0,
1999-09-13, 03:33:00,VALID,0,VALID,98.4095,VALID,0,VALID,19.9355,VALID,230,VALID,0,
1999-09-13, 03:34:00,VALID,0,VALID,98.5379,VALID,0,VALID,19.972,VALID,231,VALID,0,
1999-09-13, 03:35:00,VALID,0,VALID,98.5023,VALID,0,VALID,19.9651,VALID,234,VALID,0.257431,
1999-09-13, 03:36:00,VALID,0,VALID,98.4298,VALID,0,VALID,19.9586,VALID,236,VALID,0.364443,
1999-09-13, 03:37:00,VALID,0,VALID,98.3688,VALID,0.0169808,VALID,19.936,VALID,239,VALID,0.618877,
1999-09-13, 03:38:00,VALID,0,VALID,98.3065,VALID,0,VALID,19.9001,VALID,246,VALID,0.661595,
1999-09-13, 03:39:00,VALID,0,VALID,98.2887,VALID,-0.0339617,VALID,19.871,VALID,261,VALID,0.582422,
1999-09-13, 03:40:01,VALID,0,VALID,98.3027,VALID,0,VALID,19.8514,VALID,284,VALID,0.722762,
1999-09-13, 03:41:00,VALID,0,VALID,98.3319,VALID,0.0339617,VALID,19.835,VALID,280,VALID,0.591602,
1999-09-13, 03:42:00,VALID,0,VALID,98.2836,VALID,0.0339617,VALID,19.8131,VALID,271,VALID,0.625633,
1999-09-13, 03:43:00,VALID,0,VALID,98.3141,VALID,0,VALID,19.7895,VALID,272,VALID,0.162162,
1999-09-13, 03:44:00,VALID,0,VALID,98.4044,VALID,0,VALID,19.7897,VALID,218,VALID,0.167668,
1999-09-13, 03:45:00,VALID,0,VALID,98.4006,VALID,0,VALID,19.7867,VALID,148,VALID,0.446114,
1999-09-13, 03:46:00,VALID,0,VALID,98.3917,VALID,0.0339617,VALID,19.7902,VALID,148,VALID,0.394637,
1999-09-13, 03:47:00,VALID,0,VALID,98.3637,VALID,0,VALID,19.7738,VALID,142,VALID,0.429482,
1999-09-13, 03:48:00,VALID,0,VALID,98.3434,VALID,0.0169808,VALID,19.784,VALID,152,VALID,0.373972,
1999-09-13, 03:49:01,VALID,0,VALID,98.2696,VALID,-0.101885,VALID,19.776,VALID,168,VALID,0.380008,
1999-09-13, 03:50:00,VALID,0,VALID,98.1984,VALID,-0.0849042,VALID,19.7499,VALID,189,VALID,0.565505,
1999-09-13, 03:51:01,VALID,0,VALID,98.1958,VALID,-0.0849042,VALID,19.7236,VALID,197,VALID,0.64227,
1999-09-13, 03:52:00,VALID,0,VALID,98.1857,VALID,-0.0849042,VALID,19.6878,VALID,195,VALID,0.728468,
1999-09-13, 03:53:00,VALID,0,VALID,98.1984,VALID,-0.0849042,VALID,19.6793,VALID,190,VALID,0.705448,
1999-09-13, 03:54:00,VALID,0,VALID,98.2632,VALID,-0.0849042,VALID,19.6398,VALID,183,VALID,0.779514,
1999-09-13, 03:55:00,VALID,0,VALID,98.3802,VALID,-0.101885,VALID,19.6141,VALID,173,VALID,0.997796,
1999-09-13, 03:56:00,VALID,0,VALID,98.4731,VALID,-0.0169808,VALID,19.6226,VALID,162,VALID,0.983347,
1999-09-13, 03:57:00,VALID,0,VALID,98.4667,VALID,0,VALID,19.6452,VALID,154,VALID,0.891016,
1999-09-13, 03:58:00,VALID,0,VALID,98.4514,VALID,0,VALID,19.6549,VALID,148,VALID,1.05173,
1999-09-13, 03:59:00,VALID,0,VALID,98.4705,VALID,0,VALID,19.6708,VALID,132,VALID,0.832332,
1999-09-13, 04:00:00,VALID,0,VALID,98.454,VALID,0.0339617,VALID,19.68,VALID,146,VALID,0.775338,
1999-09-13, 04:01:00,VALID,0,VALID,98.351,VALID,0.0169808,VALID,19.6868,VALID,150,VALID,0.809544,
1999-09-13, 04:02:01,VALID,0,VALID,98.3027,VALID,0.0169808,VALID,19.6828,VALID,157,VALID,0.681949,
1999-09-13, 04:03:00,VALID,0,VALID,98.2594,VALID,0.0169808,VALID,19.7069,VALID,150,VALID,0.816817,
1999-09-13, 04:04:00,VALID,0,VALID,98.2721,VALID,0,VALID,19.7032,VALID,154,VALID,0.900586,
1999-09-13, 04:05:00,VALID,0,VALID,98.2696,VALID,0.0169808,VALID,19.7161,VALID,163,VALID,0.798483,
1999-09-13, 04:06:00,VALID,0,VALID,98.323,VALID,0.0169808,VALID,19.7096,VALID,158,VALID,0.817434,
1999-09-13, 04:07:00,VALID,0,VALID,98.365,VALID,0.0169808,VALID,19.69,VALID,169,VALID,0.59352,
1999-09-13, 04:08:00,VALID,0,VALID,98.4018,VALID,0.0339617,VALID,19.6907,VALID,171,VALID,0.201436,